Miscellaneous Local Product
Issued by NWS North Platte, NE

Home | Current Version | Previous Version | Graphics & Text | Print | Product List | Glossary On
Versions: 1 2 3 4 5 6 7 8 9 10 11 12 13 14 15 16 17 18 19 20 21 22 23 24 25 26 27 28 29 30 31 32 33 34 35 36 37 38 39 40 41 42 43 44 45 46 47 48 49 50
000
AXUS43 KLBF 301810
MISLBF


WESTERN AND NORTH CENTRAL NEBRASKA HOURLY WEATHER ROUNDUP
NATIONAL WEATHER SERVICE NORTH PLATTE NE
100 PM CDT THU JUL 30 2015

***STATIONS NOT REPORTING VARIABLES SUCH AS SKY/WEATHER OR
PRESSURE ARE PROVIDED BY THE NEBRASKA DEPARTMENT OF
ROADS...RAWS...AND APRS NETWORKS...AND ARE NOT UNDER
NATIONAL WEATHER SERVICE QUALITY CONTROL***

...OBSERVATIONS IN AND NEAR THE EASTERN PANHANDLE OF NEBRASKA...

CITY           SKY/WX    TMP DP  RH WIND       PRES   REMARKS
PINE RIDGE     SUNNY     86  45  23 NE8       30.27S
CHADRON        SUNNY     85  49  28 MISG      30.27F
ALLIANCE       SUNNY     85  55  35 NE8       30.28F
SIDNEY         SUNNY     85  56  37 S12       30.31F
BIG SPRINGS      N/A     83  65  53 NE3         N/A
$$

...OBSERVATIONS IN NORTH CENTRAL NEBRASKA...

CITY           SKY/WX    TMP DP  RH WIND       PRES   REMARKS
VALENTINE      SUNNY     89  48  24 VRB3      30.21F
THEDFORD       MOSUNNY   85  61  43 SW6       30.26S
AINSWORTH      MOSUNNY   85  58  39 S6        30.22F
O`NEILL        SUNNY     86  59  40 W7        30.22S
ORD            SUNNY     85  62  46 S10       30.22S
BROKEN BOW     SUNNY     84  64  50 W7        30.24F
SPRINGVIEW       N/A     88  63  42 SW3         N/A
CHAMBERS         N/A     88  61  40 S5          N/A
EWING            N/A     85  66  52 SW3         N/A
$$

...OBSERVATIONS IN SOUTHWEST NEBRASKA AND FAR NORTHEAST COLORADO...

CITY           SKY/WX    TMP DP  RH WIND       PRES   REMARKS
WRAY           FAIR      87  62  43 S12       30.28F
IMPERIAL       SUNNY     85  60  42 S8        30.27F
OGALLALA       SUNNY     83  65  52 CALM      30.26F
NORTH PLATTE   SUNNY     84  58  40 SW10      30.25F
MCCOOK         SUNNY     86  62  44 S9        30.25F
LEXINGTON      SUNNY     83  64  52 SW9       30.25F
PAXTON           N/A     83  69  62 S7          N/A
BRADY            N/A     82  66  57 CALM        N/A
CALLAWAY         N/A     82  69  63 SW7         N/A
$$

...NORTH PLATTE AREA...

CITY           SKY/WX    TMP DP  RH WIND       PRES   REMARKS
AIRPORT        SUNNY     84  58  40 SW10      30.25F
DOWNTOWN         N/A     86  61  42 S3          N/A
SANDRIDGE        N/A     85  59  41 MISG        N/A
HILLCREST        N/A     82  63  52 W3G13       N/A
$$

...SOME WEATHER OBSERVATIONS FROM AROUND THE REGION...

CITY           SKY/WX    TMP DP  RH WIND       PRES   REMARKS
DENVER         MOSUNNY   83  49  30 VRB6      30.35F
LARAMIE        SUNNY     75  21  13 VRB3      30.48S
CHEYENNE       SUNNY     80  46  30 NE12      30.41F
SCOTTSBLUFF    SUNNY     82  57  42 MISG      30.29F
RAPID CITY     SUNNY     84  45  25 N9        30.27S
PIERRE         SUNNY     87  49  26 NW9       30.16S
WINNER         FAIR      89  49  25 NW6       30.18S
SIOUX FALLS    SUNNY     83  63  50 W7        30.15S
OMAHA          MOSUNNY   89  55  31 W9        30.20S
GRAND ISLAND   SUNNY     85  57  38 SW9       30.24F
KANSAS CITY    PTSUNNY   82  62  50 VRB3      30.22F
WICHITA        LGT RAIN  76  68  76 SE6       30.22S
HAYS           MOSUNNY   81  64  57 SE9       30.24F
LIBERAL        CLOUDY    79  68  69 SE6       30.28F
GOODLAND       SUNNY     84  62  47 S12       30.29F
$$



USA.gov is the U.S. government's official web portal to all federal, state and local government web resources and services.